Home > Time Zones > World Clock > Weather > Niue > Alofi > Past weeks

Weather past 2 weeks in Alofi, Niue

Now
75 °F

Broken clouds.


Feels Like: 77 °F
Forecast: 72 / 75 °F
Wind: 10 mph from Southwest

Location: Alofi / Niue

Current Time: Aug 22, 2014 at 11:17:03 AM

Latest Report: Aug 22, 2014 at 11:00 AM


Visibility: N/A

Pressure: 30.01 "Hg

Humidity: 69%

Dew point: 64 °F

Location of AlofiLocation

Historic Weather in Alofi — Graph

°F

Alofi temperature yesterday

Maximum temperature yesterday: 79 °F (at 10:00 AM)
Minimum temperature yesterday: 77 °F (at 9:00 AM)
Average temperature yesterday: 79 °F

Past Weeks' High & Low Weather Summary

 TemperatureHumidityPressure
High81 °F (Aug 20, 1:00 PM)100% (Aug 8, 7:00 AM)30.12 "Hg (Aug 8, 7:00 AM)
Low61 °F (Aug 19, 4:00 AM)54% (Aug 19, 10:00 AM)29.83 "Hg (Aug 7, 11:00 AM)
Average73 °F80%29.99 "Hg
* Reported Aug 7 10:00 AM — Aug 22 10:00 AM, Alofi, Weather by CustomWeather, © 2014

Note: Actual official high and low records may vary slightly from our data, if they occured in-between our weather recording intervals... More about our weather records

Advertising

Alofi weather history for previous 24 hours

 ConditionsComfort  
Time TempWeatherWind HumidityBarometerVisibility
10:00 AM
Aug 22
75 °FBroken clouds.12 mph61%30.01 "HgN/A
9:00 AM75 °FBroken clouds.12 mph69%30.01 "HgN/A
8:00 AM73 °FBroken clouds.8 mph74%29.98 "HgN/A
7:00 AM73 °FPartly cloudy.10 mph74%29.98 "HgN/A
6:00 AM73 °FPartly cloudy.N/A74%29.95 "HgN/A
5:00 AM72 °FOvercast.10 mph78%29.92 "HgN/A
4:00 AM72 °FOvercast.10 mph83%29.92 "HgN/A
3:00 AM70 °FOvercast.12 mph100%29.95 "HgN/A
2:00 AM70 °FPassing clouds.7 mph94%29.95 "HgN/A
1:00 AM72 °FPartly cloudy.N/A83%29.95 "HgN/A
4:00 PM
Aug 21
79 °FPartly sunny.9 mph79%29.92 "HgN/A
3:00 PM79 °FScattered clouds.7 mph79%29.92 "HgN/A
2:00 PM79 °FScattered clouds.5 mph74%29.92 "HgN/A
1:00 PM79 °FScattered clouds.5 mph70%29.95 "HgN/A
12:00 PM79 °FScattered clouds.6 mph74%29.95 "HgN/A
11:00 AM79 °FScattered clouds.6 mph74%29.98 "HgN/A
Weather by CustomWeather, © 2014

See weather overviewHow to use our weather pages